Wind_Speed
45 48 52 56 61 65 65 57 53 42 33 27 23 22 20 17 14 12 9 9 8 10 8 12 10 12 15 17 19 21 24 20 16 15 20 22 29 26 27 30 27 31 26 22
48 50 52 54 60 64 67 61 56 40 40 31 25 22 19 18 14 12 8 6 5 3 1 3 8 9 16 13 15 19 22 22 22 23 22 22 27 28 24 28 30 32 30 20
48 51 54 55 60 64 68 65 60 48 47 39 29 22 19 19 16 13 11 7 4 3 3 3 1 3 8 11 15 19 16 15 15 14 14 16 19 25 28 26 27 28 30 27
49 52 52 56 59 62 65 67 58 54 50 43 34 28 22 18 17 16 13 10 7 7 6 6 6 6 9 11 10 10 11 12 16 14 14 15 16 21 26 26 25 30 27 24
52 54 53 56 60 60 62 63 62 60 58 53 43 34 29 24 20 17 16 14 12 9 9 9 9 10 10 15 15 11 11 10 11 13 14 16 18 19 20 21 21 21 21 21
51 52 53 54 59 61 65 68 67 66 63 57 54 42 33 31 26 21 19 16 16 15 12 12 14 14 15 14 14 15 13 11 11 13 14 16 19 21 22 22 21 23 23 19
51 52 53 55 58 61 63 66 69 73 73 76 66 52 30 33 33 27 22 19 17 18 17 14 13 15 17 17 17 16 16 14 14 15 17 17 15 20 22 22 23 21 22 21
50 52 54 58 60 61 67 71 75 77 81 84 69 52 37 32 34 28 26 22 18 17 17 18 15 15 16 17 16 16 17 15 16 15 15 15 15 17 18 19 21 21 22 23
51 54 53 56 59 64 68 74 81 83 87 86 72 46 34 26 31 28 29 25 20 18 17 19 18 16 16 18 18 17 16 16 16 14 15 15 15 14 14 15 15 15 18 19
50 52 52 54 58 61 69 76 84 91 92 82 58 32 19 21 26 25 30 25 22 19 18 17 18 19 19 18 19 21 19 19 17 16 15 15 14 13 14 13 13 12 14 14
44 43 48 53 55 63 70 77 88 96 85 57 43 24 13 20 22 22 29 28 24 21 19 17 17 16 17 17 17 16 17 18 17 16 17 16 13 14 14 13 14 15 14 13
40 36 43 55 60 67 70 79 90 96 60 40 26 12 15 20 20 23 24 30 25 22 22 18 17 16 15 17 18 17 16 16 17 16 18 16 16 15 15 14 14 13 11 11
34 37 47 55 61 66 74 81 91 88 47 23 15 6 12 16 22 19 20 29 31 27 24 21 19 16 15 16 19 18 17 16 16 17 17 15 16 16 15 13 14 11 11 11
34 41 47 54 61 67 75 82 87 68 31 10 8 4 8 12 19 17 19 20 25 31 28 25 22 18 16 15 18 21 19 17 17 17 17 15 16 17 16 15 15 13 14 14
35 43 51 58 64 70 76 80 71 48 21 5 5 5 8 11 17 19 17 18 18 28 31 28 24 21 17 15 13 16 23 22 20 19 16 17 17 18 16 16 16 16 16 16
37 47 53 56 63 69 73 69 52 29 5 7 6 9 8 9 11 18 18 18 18 16 29 30 27 23 22 18 13 17 15 18 19 20 21 21 20 19 19 19 19 19 19 20
39 44 55 56 65 71 66 57 28 7 4 4 6 6 7 5 7 13 17 19 17 20 18 25 29 28 27 23 16 19 17 16 16 17 19 18 17 17 17 16 17 19 20 21
40 47 53 59 64 65 51 24 7 6 4 8 9 5 4 6 7 9 11 13 15 23 23 21 23 28 33 27 22 22 21 20 18 17 16 14 14 14 14 15 15 16 17 19
42 47 51 57 62 47 29 6 8 8 9 12 10 11 12 12 15 16 17 16 15 16 20 24 25 25 26 26 28 28 28 28 26 24 22 20 18 17 18 19 19 20 19 18
42 48 54 61 59 37 14 13 15 12 13 15 13 3 2 5 6 14 20 22 22 22 20 20 20 25 26 25 25 28 33 35 33 32 32 31 29 26 24 24 24 24 24 23
42 47 53 57 57 17 13 14 13 14 14 12 3 3 6 9 6 3 5 8 11 16 22 25 24 25 25 26 28 27 28 32 36 38 38 39 37 34 31 29 28 27 25 24
42 44 52 55 42 13 14 14 13 13 11 7 6 5 5 5 6 8 4 1 2 1 3 9 12 19 21 22 20 21 22 23 26 30 36 38 38 38 37 34 33 32 31 30
44 45 50 52 24 15 17 14 14 13 9 9 12 8 5 2 1 4 5 5 4 5 4 1 6 9 12 14 16 19 20 21 22 23 24 28 31 34 37 37 35 34 34 35
44 47 50 34 20 16 14 14 15 13 9 5 5 10 9 7 7 7 8 6 7 6 7 8 6 8 7 7 10 16 20 19 18 18 19 20 21 22 24 28 31 35 36 35
45 47 41 27 20 18 16 13 13 14 12 9 9 10 8 12 12 11 9 10 7 7 8 5 6 6 11 12 8 8 10 11 10 9 9 11 13 15 19 24 28 31 32 35
45 43 31 20 18 21 18 18 20 17 17 18 15 15 14 14 14 16 15 12 9 7 9 7 9 10 12 10 6 8 10 11 10 10 10 11 12 14 15 14 12 13 17 22
45 35 25 20 19 20 21 21 21 21 21 19 20 23 23 21 20 19 22 20 17 16 14 15 15 16 17 12 9 16 16 17 16 11 6 3 5 7 8 9 12 14 13 12
Wind_Direction
328 331 334 340 344 344 348 0 2 355 343 337 339 344 341 327 342 355 0 28 55 88 40 45 59 81 143 136 137 163 179 178 200 195 198 205 209 212 215 226 241 240 252 245
326 330 330 336 340 342 347 354 2 2 356 335 329 329 331 328 316 325 332 339 3 75 310 347 20 78 104 146 158 175 175 193 196 195 204 211 213 215 225 232 237 240 243 239
325 329 330 332 333 338 343 347 352 357 355 347 323 318 314 318 315 308 310 313 284 239 216 237 319 70 138 123 128 141 167 176 181 198 211 217 218 216 220 232 241 244 249 249
322 324 330 332 332 334 337 342 348 353 2 357 341 312 306 296 299 293 289 296 280 249 231 237 204 224 167 148 134 148 160 175 191 204 212 208 204 216 224 231 234 235 238 243
320 321 326 328 329 330 333 335 339 342 342 348 347 335 298 288 277 280 278 274 279 264 246 235 231 222 227 202 207 206 191 206 216 220 227 229 228 225 228 231 229 230 240 248
317 319 323 323 323 327 328 330 333 333 337 340 337 331 316 284 270 260 265 260 254 266 260 238 230 231 227 226 214 207 217 224 235 234 234 239 237 239 237 237 233 230 233 236
315 316 319 322 321 322 326 327 328 329 332 334 335 332 301 287 265 251 250 255 249 253 257 251 233 227 225 227 222 229 239 242 247 236 235 242 244 243 242 243 243 242 242 240
314 317 320 319 319 321 322 326 326 327 329 331 334 322 299 274 251 244 239 245 244 244 246 246 233 226 224 223 228 234 241 237 232 238 241 238 241 243 244 245 246 250 249 252
315 316 320 320 320 323 325 326 324 326 327 331 332 321 296 252 235 238 227 235 238 239 239 239 233 227 227 229 232 236 237 226 229 234 237 237 237 239 245 243 238 234 240 244
313 314 319 317 320 324 325 326 325 324 328 330 328 323 280 232 222 233 217 223 229 232 234 234 229 228 229 233 238 238 236 226 230 230 227 222 227 234 233 233 231 230 226 224
308 316 318 320 324 323 324 327 326 326 334 328 326 320 248 209 222 225 220 215 222 227 228 229 231 228 227 228 230 229 223 225 228 224 219 223 227 222 222 223 225 226 228 234
310 327 326 317 321 325 328 330 326 327 337 325 332 304 216 203 217 217 230 210 217 221 225 228 230 230 229 224 217 219 219 221 219 221 216 226 219 219 233 220 213 220 232 233
315 329 335 324 328 327 330 328 326 327 337 312 322 261 214 215 218 219 220 219 214 218 222 224 229 230 227 226 218 219 217 216 214 215 217 218 218 221 233 235 216 219 234 233
323 332 335 331 330 329 327 325 325 326 342 311 273 233 256 233 224 223 221 218 224 216 222 222 224 227 226 229 224 220 221 218 215 215 218 215 218 222 225 231 237 234 236 241
327 334 337 333 328 327 326 329 329 326 334 259 228 271 272 233 226 220 220 223 227 219 223 227 225 228 228 228 228 224 224 227 226 225 223 223 221 228 230 234 238 239 241 248
328 340 345 336 334 330 334 333 327 324 330 192 283 285 263 248 233 215 220 226 225 231 223 226 227 228 231 224 215 235 232 228 230 230 229 232 234 239 240 241 245 248 251 252
331 336 340 341 333 340 339 333 338 341 268 224 313 260 246 237 225 220 215 222 230 232 231 228 228 231 235 225 209 230 230 229 229 226 226 227 229 234 241 246 250 252 254 255
327 332 334 341 342 341 340 339 7 337 314 284 295 279 251 250 232 233 230 219 232 229 229 227 229 228 233 224 211 225 233 233 228 226 219 214 216 223 232 240 247 252 256 259
331 334 344 347 344 339 335 330 329 312 298 299 292 290 280 269 253 239 237 236 230 231 231 224 224 229 233 234 233 237 236 234 237 233 234 233 232 238 243 248 255 259 260 263
323 333 341 341 346 340 307 306 308 298 308 313 294 275 356 312 271 231 222 223 232 230 237 237 238 233 237 237 233 234 237 239 242 243 243 243 244 244 245 248 252 258 260 261
321 328 337 340 344 316 276 307 295 288 304 312 172 33 341 328 309 232 209 217 236 233 233 232 232 234 235 237 238 234 237 242 245 247 250 251 251 251 250 250 252 255 259 260
324 328 337 340 336 284 288 304 289 287 297 286 233 317 326 345 4 154 140 310 303 118 275 233 218 230 240 244 241 239 243 244 245 247 249 253 255 255 252 252 250 254 258 259
322 326 335 335 315 290 288 292 283 275 269 267 257 265 306 255 102 182 280 298 250 253 216 126 210 217 218 225 237 242 244 246 247 249 250 252 257 259 258 254 253 256 260 259
318 325 331 322 288 273 279 264 267 266 262 268 291 264 259 265 259 247 266 289 258 239 245 252 235 239 231 238 264 247 241 241 247 251 256 258 257 258 257 259 259 258 260 261
316 323 327 312 264 260 263 256 266 260 261 270 281 279 291 262 256 253 265 260 277 288 255 250 263 267 268 276 266 244 228 236 242 243 254 261 263 263 264 261 262 261 261 261
317 321 315 272 264 252 264 256 256 255 263 272 278 282 282 271 263 251 250 244 232 263 263 245 249 223 218 246 248 246 200 195 213 217 245 264 268 274 273 274 275 276 272 264
317 313 278 248 265 256 248 253 256 263 259 264 270 275 276 275 262 255 246 244 238 233 248 238 248 257 268 256 217 222 223 221 224 216 196 228 293 308 312 313 297 275 270 274
Height
5721 5713 5705 5696 5683 5674 5665 5660 5656 5649 5644 5641 5635 5630 5626 5623 5618 5615 5613 5610 5608 5606 5607 5604 5603 5600 5601 5603 5606 5611 5615 5618 5622 5626 5629 5631 5635 5640 5643 5646 5650 5651 5653 5656
5716 5708 5701 5693 5682 5673 5664 5657 5653 5648 5642 5638 5633 5629 5625 5621 5618 5615 5613 5611 5609 5607 5607 5607 5606 5606 5606 5607 5608 5611 5615 5618 5620 5623 5628 5630 5633 5636 5638 5642 5644 5646 5649 5651
5710 5703 5696 5689 5679 5670 5660 5652 5646 5644 5641 5635 5630 5626 5622 5620 5617 5614 5611 5610 5610 5608 5607 5606 5607 5608 5607 5608 5609 5610 5614 5617 5620 5623 5625 5626 5628 5632 5635 5637 5639 5642 5643 5646
5706 5699 5691 5684 5676 5667 5658 5648 5643 5638 5634 5631 5627 5623 5619 5616 5614 5612 5609 5608 5607 5607 5606 5606 5606 5607 5610 5610 5612 5612 5615 5617 5620 5622 5623 5625 5626 5628 5631 5633 5635 5636 5639 5640
5700 5693 5686 5678 5671 5663 5654 5645 5638 5632 5629 5626 5623 5618 5615 5611 5608 5607 5605 5604 5603 5604 5603 5603 5605 5605 5606 5609 5610 5612 5613 5615 5617 5618 5620 5621 5622 5625 5626 5627 5629 5631 5633 5636
5695 5688 5681 5675 5667 5658 5650 5640 5632 5623 5620 5616 5613 5611 5605 5602 5600 5599 5599 5598 5598 5598 5601 5599 5600 5602 5603 5605 5607 5609 5611 5612 5613 5614 5614 5615 5618 5620 5622 5624 5625 5627 5628 5632
5687 5681 5676 5670 5662 5654 5645 5633 5624 5614 5606 5599 5594 5592 5590 5587 5588 5590 5590 5591 5592 5594 5595 5596 5596 5598 5599 5601 5603 5605 5607 5608 5609 5610 5611 5613 5615 5616 5617 5619 5620 5623 5625 5627
5680 5675 5669 5661 5653 5645 5636 5625 5615 5602 5594 5582 5575 5568 5565 5565 5571 5577 5580 5583 5584 5587 5588 5591 5591 5594 5596 5597 5599 5601 5603 5604 5605 5607 5608 5610 5611 5612 5614 5615 5618 5619 5621 5622
5672 5667 5662 5652 5644 5637 5625 5614 5601 5588 5579 5568 5555 5548 5544 5548 5555 5564 5570 5575 5577 5580 5582 5585 5586 5588 5591 5593 5595 5597 5598 5600 5602 5604 5605 5606 5608 5609 5610 5612 5614 5616 5617 5618
5661 5657 5652 5644 5637 5628 5618 5604 5588 5574 5563 5549 5537 5532 5531 5536 5546 5554 5560 5566 5570 5573 5576 5579 5582 5584 5586 5588 5590 5592 5593 5596 5598 5599 5601 5604 5604 5606 5607 5609 5613 5611 5613 5615
5652 5648 5643 5635 5629 5620 5608 5595 5578 5562 5552 5534 5529 5526 5526 5532 5540 5547 5552 5559 5564 5567 5572 5574 5576 5579 5581 5583 5584 5586 5589 5591 5594 5595 5597 5600 5601 5602 5604 5606 5606 5608 5609 5610
5644 5639 5634 5627 5618 5607 5597 5586 5567 5552 5542 5527 5525 5523 5526 5530 5535 5541 5545 5552 5557 5562 5566 5570 5571 5574 5576 5578 5581 5583 5586 5588 5590 5593 5594 5596 5597 5599 5600 5601 5603 5605 5606 5607
5635 5631 5625 5617 5607 5597 5586 5574 5558 5542 5535 5525 5525 5523 5526 5529 5533 5536 5541 5545 5550 5555 5561 5564 5567 5569 5571 5573 5576 5579 5581 5583 5585 5588 5590 5592 5593 5596 5597 5598 5599 5601 5603 5604
5627 5622 5617 5608 5598 5589 5579 5563 5546 5534 5527 5525 5524 5526 5528 5532 5533 5534 5537 5540 5544 5550 5555 5558 5562 5565 5567 5568 5571 5574 5577 5579 5581 5583 5586 5588 5590 5591 5594 5595 5597 5598 5599 5601
5619 5615 5608 5600 5590 5581 5569 5552 5537 5527 5525 5526 5526 5528 5528 5529 5531 5532 5534 5536 5540 5543 5549 5554 5558 5561 5563 5564 5567 5569 5570 5574 5577 5579 5582 5584 5585 5587 5589 5591 5593 5594 5595 5596
5612 5607 5599 5592 5581 5570 5556 5540 5531 5525 5526 5527 5529 5528 5527 5528 5528 5530 5532 5534 5537 5539 5544 5549 5553 5557 5559 5561 5564 5564 5567 5569 5571 5574 5576 5578 5580 5582 5584 5586 5588 5589 5590 5591
5606 5598 5591 5581 5568 5556 5547 5538 5531 5528 5526 5525 5523 5525 5526 5526 5526 5528 5529 5532 5534 5536 5539 5543 5547 5552 5553 5556 5561 5560 5563 5565 5567 5569 5571 5573 5575 5577 5578 5580 5581 5582 5584 5585
5597 5591 5581 5571 5558 5546 5538 5534 5532 5531 5528 5529 5528 5524 5525 5525 5525 5527 5527 5529 5530 5532 5535 5538 5541 5545 5546 5551 5556 5557 5558 5561 5563 5565 5567 5569 5571 5572 5573 5575 5576 5577 5578 5578
5588 5583 5573 5561 5550 5541 5536 5535 5534 5533 5532 5529 5527 5523 5523 5522 5522 5523 5524 5525 5526 5529 5530 5532 5536 5538 5541 5545 5549 5552 5553 5555 5557 5560 5562 5564 5566 5568 5569 5570 5570 5571 5572 5572
5577 5572 5562 5554 5547 5536 5537 5535 5533 5531 5532 5530 5523 5521 5520 5520 5517 5516 5518 5519 5521 5524 5526 5528 5531 5534 5537 5537 5540 5543 5546 5548 5550 5553 5555 5557 5559 5561 5563 5564 5564 5565 5565 5566
5571 5564 5555 5548 5538 5535 5533 5532 5532 5531 5529 5527 5525 5522 5521 5518 5517 5516 5516 5516 5518 5519 5521 5523 5526 5527 5529 5531 5533 5536 5539 5540 5542 5544 5546 5548 5551 5552 5554 5556 5557 5557 5558 5559
5562 5558 5547 5539 5535 5532 5531 5529 5529 5530 5528 5524 5522 5521 5519 5518 5516 5516 5517 5518 5518 5518 5518 5519 5519 5521 5523 5525 5527 5529 5531 5533 5534 5536 5537 5538 5540 5542 5544 5546 5548 5549 5550 5551
5552 5547 5540 5534 5531 5529 5529 5529 5527 5525 5525 5524 5523 5521 5519 5518 5517 5518 5518 5517 5517 5517 5517 5518 5519 5519 5520 5522 5523 5524 5525 5527 5528 5529 5529 5530 5531 5532 5534 5536 5538 5539 5540 5541
5542 5538 5533 5527 5524 5524 5524 5523 5524 5523 5522 5520 5519 5519 5519 5517 5517 5516 5516 5516 5516 5516 5516 5516 5516 5516 5517 5518 5518 5518 5519 5520 5521 5522 5523 5524 5525 5525 5526 5527 5528 5529 5530 5531
5533 5528 5523 5521 5519 5519 5519 5519 5518 5518 5519 5518 5518 5517 5516 5515 5515 5514 5514 5514 5513 5513 5513 5514 5514 5515 5515 5514 5514 5514 5514 5515 5517 5517 5518 5518 5519 5519 5519 5519 5519 5519 5520 5520
5523 5516 5513 5512 5512 5513 5512 5512 5513 5513 5513 5512 5513 5513 5511 5511 5511 5511 5511 5512 5511 5512 5511 5511 5513 5513 5512 5512 5512 5512 5512 5513 5514 5515 5515 5516 5515 5515 5514 5514 5513 5512 5511 5511
5512 5508 5503 5504 5505 5506 5507 5507 5507 5507 5507 5507 5506 5506 5505 5505 5505 5505 5505 5506 5508 5508 5507 5508 5509 5509 5508 5510 5510 5510 5510 5510 5511 5511 5511 5512 5512 5512 5511 5510 5509 5507 5506 5505